Velovelo
Português Nederlands 日本語 中文
Español English čeština slovenčina
русский italiano polski norsk
français Deutsch svenska عربي
 
 poprzednia strona
 Wyślij znajomemu
 Aby wydrukować
 ---> La Jean François Rault : Résultats du 110 km

ClNomPrénomCatC.catTemps
1 LEGRAND JEAN MICHEL B 1 3:02:44
2 LEBRETON JEAN YVES E 2 3:04:24
3 LOZAC’H CHRISTOPHE A 1 3:04:28
4 POLIGNE SYLVAIN B 7 3:04:46
5 BLAT HERVE B 8 3:04:55
6 LE PELLEC GUILLAUME A 3 3:05:05
7 RAULT JEAN FRANCOIS C 2 3:05:06
8 GUIGUEN ANTHONY A 4 3:05:10
9 SICOT CHRISTOPHE B 3 3:05:12
10 COQUIN ANGE E 1 3:05:13
11 GUEGAN DAVID A 2 3:05:13
12 GAUTIER PATRICE B 2 3:05:16
13 LELANDAIS PASCAL C 3 3:05:16
14 REMY FREDERICH B 5 3:05:16
15 SURGET SEBASTIEN B 6 3:05:18
16 HERISSON THIERRY B 9 3:05:21
17 HANTRAYE ARNAUD B 4 3:05:23
18 MOREL PHILIPPE C 1 3:05:25
19 MAHE OLIVIER B 10 3:07:15
20 POULAIN JEAN MARIE A 5 3:14:51
21 HAMON BRUNO C 4 3:15:04
22 BRIAND RAYNALD C 7 3:15:09
23 BOISORIEUX JEAN YVES C 5 3:15:15
24 URVOY DAVID B 14 3:15:19
25 LE ROY SEBASTIEN B 11 3:15:21
26 JEUNEU GILLES C 6 3:15:22
27 LE GOFF GUIREC C 8 3:15:24
28 LALANNE PIERRE C 9 3:15:41
29 BOUFFORT YANNICK B 12 3:15:44
30 SOUPLET ALAIN B 15 3:15:59
31 GUESSANT ALAIN D 4 3:16:06
32 HAMON JACKY D 2 3:16:08
33 BRIEND ALAIN D 3 3:16:08
34 FOURMONT JEAN LOUIS D 1 3:16:10
35 GUEGAN DAVID B 13 3:16:17
36 GOUYA JEAN MARIE A 6 3:16:31
37 MENIER MICHEL D 5 3:16:47
38 LE ROY ERWAN B 16 3:17:00
39 PERIO BERTRAND B 17 3:19:02
40 LE MEUR PHILIPPE C 10 3:19:13
41 OGER LAURENT B 19 3:19:35
42 LE GOFF YANN C 11 3:19:39
43 MAGNAN NICOLAS B 20 3:19:41
44 HINAULT JEAN PAUL D 10 3:19:52
45 FAUCILLON MICHEL D 9 3:19:57
46 THORETON CHRISTOPHE B 21 3:19:58
47 BOUTROS GILDAS D 7 3:20:00
48 ROCABOY EMMANUEL B 18 3:20:02
49 RAULT JEAN CLAUDE D 6 3:20:03
50 LE VERGE JEAN FRANCOIS C 13 3:20:07
51 PAVIOT JOEL E 3 3:20:12
52 LE DENMAT JOEL E 4 3:20:22
53 MAURUGEON BERNARD D 8 3:20:25
54 COLIEU PASCAL C 12 3:20:30
55 LEROY JEROME B 25 3:27:18
56 MENARD SEBASTIEN B 24 3:27:18
57 HUBERT OLIVIER C 14 3:27:35
58 PRIDO MICHEL D 11 3:27:38
59 GAILLET CHRISTOPHE B 22 3:27:39
60 LE ROUX JEAN ROBERT D 12 3:27:53
61 ESNAULT ERIC B 23 3:28:22
62 GUYOMARD CHRISTIAN E 5 3:28:24
63 MARY YVES C 15 3:28:26
64 BAUDET FREDERIC A 7 3:28:35
65 LORRE JACKY C 17 3:28:40
66 REVERDI ALAIN D 13 3:28:42
67 MORIN GERARD E 7 3:28:52
68 DORE CHRISTIAN D 17 3:28:53
69 PINSON ANTHONY A 8 3:28:57
70 PLESSIS DENIS D 16 3:29:08
71 ANDRIEUX ALAIN D 14 3:29:11
72 CAROFF JEAN YVES D 15 3:29:13
73 PINSON ALAIN C 16 3:29:14
74 DANIEL RAYMOND E 6 3:29:15
75 DANIEL GEARARD C 18 3:29:16
76 LE COQ JULIEN A 9 3:29:24
77 LECUYER JEAN YVES C 19 3:29:40
78 GAULTIER MICHEL C 20 3:30:10
79 BARBE MICHEL B 26 3:32:47
80 ALLAIRE ERIC B 27 3:32:55
81 EVROT ALAIN D 18 3:34:24
82 ROUXEL JEAN LOUIS E 9 3:37:51
83 LE JAN FREDERIC A 10 3:37:52
84 COUPPEY JEROME B 29 3:37:57
85 BONNEAU PATRICK C 21 3:38:04
86 AILLET ABEL C 23 3:38:05
87 VETTIER SERGE C 24 3:38:16
88 URO LOIC E 10 3:38:19
89 LEGAL OLIVIER B 28 3:38:23
90 WATTELET KEVIN A 11 3:38:24
91 MARTIN OLIVIER B 32 3:38:40
92 BERTHELOT DOMINIQUE C 22 3:38:44
93 PELHERBE NICOLAS B 31 3:38:47
94 LE GALLIC PIERRE E 8 3:38:51
95 GUEGAN STEPHANE B 30 3:38:57
96 GOURET LOUIS PIERRE D 19 3:40:03
97 CHEVALIER PATRICK C 25 3:40:09
98 SOUCHU ROLAND D 20 3:41:26
99 BRESSET JEAN FRANCOIS C 26 3:41:52
100 BROUARD ERIC B 33 3:42:19
101 BLETEAU OLIVIER C 30 3:43:24
102 CALLOC’H PIERRICK C 28 3:43:42
103 LOISON ANDRE E 12 3:44:31
104 CADORET GILLES C 29 3:44:37
105 LORAND BRUNO C 27 3:44:39
106 CHEVROLLIER ALAIN E 11 3:44:51
107 BURLOT SYLVAIN D 21 3:45:02
108 DESTRUEL MARC C 32 3:47:10
109 PRESSE JEAN ROBERT A 13 3:47:37
110 LE ROLLAND GILBERT E 13 3:47:58
111 PIVRON LOIC C 31 3:48:05
112 MICHEL BENOIT A 12 3:48:20
113 GEORGEAULT JEAN FRANCOIS C 33 3:48:41
114 HAMON FRANCOIS E 15 3:50:51
115 LE PERU YVES E 14 3:51:00
116 LEMMON CHRISTIAN D 22 3:51:31
117 JEHAN DOMINIQUE D 24 3:51:52
118 RAULT JACKIE D 23 3:52:02
119 CROIZIER PHILIPPE C 34 3:52:16
120 JEGOU ANDRE E 17 3:52:45
121 LE ROUX DANIEL E 16 3:52:46
122 GUINARD MICHEL E 18 3:53:31
123 BOISORIEUX FREDERIC A 14 3:55:49
124 DUFRECHE LAURENT B 34 3:56:08
125 HIRRIEN RAYMOND D 26 3:56:18
126 AUDRAN Georges D 25 3:56:20
127 DUFRECHE JEAN MICHEL C 38 3:56:28
128 ECORCHAUD MAURICE C 35 3:56:39
129 AILLET MICHEL 1 3:56:42
130 MARZELIERE DOMINIQUE C 36 3:56:54
131 MARZELIERE NATHALIE BF 1 3:56:54
132 LE BIHANNIC ANDRE C 37 3:57:30
133 MAGNAN MICHEL D 28 3:57:33
134 LE CALVEZ MICHEL E 19 3:57:38
135 COATRIEUX MICHEL D 27 3:58:34
136 MAHE JOEL C 39 3:59:22
137 MAGNAN ETIENNE D 29 3:59:46
138 YONCOURT LOIC D 30 4:00:20
139 LE ROUSSEAU GABRIEL A 15 4:01:27
140 FAOUR CORINNE BF 2 4:04:47
141 LE BIHAN ALAIN D 31 4:05:31
142 REB FRANCOISE DF 1 4:05:46
143 GUEZENNEC LOUIS E 20 4:05:50
144 EVEN ANDRE E 21 4:06:13
145 LE YONDRE JEAN LUC D 32 4:06:50
146 LE BUHAN JACKY C 40 4:07:26
147 PERCHEREL CLAUDE 1 4:08:09
148 HAUTIERE BERNARD D 33 4:08:48
149 LE BARS PIERRE E 22 4:09:55
150 LE NET JEAN PIERRE C 41 4:10:41
151 LE BRETON MICHEL CF 1 4:10:58
152 GICQUEL BRUNO HERVE D 34 4:11:16
153 NIVET PASCAL D 35 4:12:43
154 TALBOURDET MAURICE E 23 4:14:00
155 LE DOLEDEC RAYMONDE DF 2 4:14:17
156 ANDRE CHRISTIAN D 37 4:14:29
157 JAOUEN PIERRE D 36 4:15:03
158 LE BASTARD ANNIE BF 3 4:15:40
159 JAOUEN MARIE CHANTAL CF 2 4:15:51
160 MAUGARS PATRICK D 38 4:16:00
161 LIAGRE MARIE CATHERINE D 39 4:18:05
162 PRESSE CHRISTIAN A 16 4:18:43
163 LE FUR MICHEL E 24 4:19:16
164 LE JORT LOIK D 40 4:20:50
165 BAGAS JOËL D 42 4:22:16
166 RENAULT CLAUDE D 41 4:23:08
167 HILLIOU VICTOR E 25 4:30:06
168 PRUNIER MARCEL D 43 4:31:36
169 ADAM CLAUDE E 26 4:34:42
170 GUSTIN CHRISTIAN D 44 4:35:31
171 LENOUVEL CLAUDE E 27 4:59:09

Na górę 









Na górę  
 Strefa prywatna   Prawa autorskie-Copyright: Ciśnijcie tu żeby przeczytać!